Ponca City, OK

7:18 PM CST on December 05, 2019 (GMT -0600)
Ponca City Municipal

Weather History for KPNC - November, 2019

Change the Weather History Date:

Thursday, November 21, 2019

  Actual Average Record
Temperature  
Mean Temperature 52 °F -  
Max Temperature 64 °F 62 °F 77 °F (1955)
Min Temperature 39 °F 36 °F 17 °F (1964)
Degree Days  
Heating Degree Days 14    
Growing Degree Days 2 (Base 50)    
Moisture  
Dew Point 43 °F    
Average Humidity 78    
Maximum Humidity 90    
Minimum Humidity 57    
Precipitation  
Precipitation 0.02 in - - ()
Sea Level Pressure  
Sea Level Pressure 30.01 in    
Wind  
Wind Speed 12 mph (North)    
Max Wind Speed 20 mph    
Max Gust Speed 25 mph    
Visibility 10 miles    
Events Rain    
Averages and records for this station are not official NWS values.
T = Trace of Precipitation, MM = Missing Value Source: NWS Daily Summary

Daily Weather History Graph

Daily Weather History Graph

Search for Another Location

Airport or City:

Astronomy

Nov. 21, 2019 Rise Set
Actual Time 7:12 AM CST 5:15 PM CST
Civil Twilight 6:44 AM CST 5:43 PM CST
Nautical Twilight 6:12 AM CST 6:15 PM CST
Astronomical Twilight 5:42 AM CST 6:46 PM CST
Moon 1:21 AM CST (11/21) 2:35 PM CST (11/21)
Length of Visible Light 10h 59m
Length of Day
10h 03m
Waning Crescent, 29% of the Moon is Illuminated
Nov 21
Waning Crescent
Nov 26
New
Dec 4
First Quarter
Dec 11
Full
Dec 18
Last Quarter

Hourly Weather History & Observations

Time (CST) Temp. Windchill Dew Point Humidity Pressure Visibility Wind Dir Wind Speed Gust Speed Precip Events Conditions
12:53 AM 63.0 °F - 60.1 °F 90% 29.79 in 10.0 mi South 10.4 mph - N/A   Mostly Cloudy
1:53 AM 64.0 °F - 60.1 °F 87% 29.79 in 10.0 mi South 8.1 mph - N/A   Partly Cloudy
2:53 AM 64.0 °F - 60.1 °F 87% 29.81 in 10.0 mi SSW 11.5 mph 18.4 mph N/A   Scattered Clouds
3:37 AM 64.0 °F - 60.1 °F 87% 29.87 in 10.0 mi WSW 9.2 mph - N/A   Overcast
3:46 AM 64.0 °F - 60.1 °F 87% 29.86 in 10.0 mi WSW 8.1 mph - N/A   Overcast
3:53 AM 64.0 °F - 60.1 °F 87% 29.85 in 10.0 mi WSW 9.2 mph - N/A   Overcast
4:00 AM 64.0 °F - 60.1 °F 87% 29.86 in 10.0 mi WSW 8.1 mph - N/A   Overcast
4:40 AM 61.0 °F - 57.9 °F 90% 29.89 in 10.0 mi WNW 15.0 mph 21.9 mph N/A   Overcast
5:00 AM 52.0 °F - 46.9 °F 83% 29.91 in 10.0 mi NNW 15.0 mph - N/A   Overcast
5:53 AM 48.9 °F - 43.0 °F 80% 29.94 in 10.0 mi North - - N/A   Overcast
6:53 AM 46.9 °F - 41.0 °F 80% 29.99 in 10.0 mi NNW 13.8 mph 23.0 mph N/A   Overcast
7:53 AM 46.0 °F 39.9 °F 39.0 °F 76% 30.03 in 10.0 mi NNW 13.8 mph - N/A   Overcast
8:53 AM 45.0 °F 39.3 °F 37.0 °F 74% 30.06 in 10.0 mi NNW 11.5 mph - N/A   Overcast
9:53 AM 46.0 °F 39.9 °F 37.0 °F 71% 30.06 in 10.0 mi North 13.8 mph - N/A   Overcast
10:53 AM 46.9 °F - 37.0 °F 68% 30.07 in 10.0 mi NNW 10.4 mph - N/A   Overcast
11:53 AM 48.9 °F - 37.9 °F 66% 30.04 in 10.0 mi NNW 13.8 mph 23.0 mph N/A   Mostly Cloudy
12:53 PM 51.1 °F - 37.0 °F 59% 30.02 in 10.0 mi North 17.3 mph - N/A   Clear
1:53 PM 53.1 °F - 37.9 °F 57% 30.00 in 10.0 mi North 17.3 mph - N/A   Clear
3:27 PM 48.0 °F - 37.0 °F 66% 30.07 in 10.0 mi North 13.8 mph - N/A   Overcast
3:44 PM 45.0 °F 37.4 °F 37.0 °F 74% 30.06 in 10.0 mi NNE 18.4 mph - 0.00 in Rain Light Rain
3:53 PM 45.0 °F 39.7 °F 37.9 °F 76% 30.06 in 10.0 mi NNE 10.4 mph - 0.00 in Rain Light Rain
4:53 PM 44.1 °F 35.9 °F 37.0 °F 76% 30.04 in 10.0 mi North 19.6 mph - 0.02 in   Overcast
5:23 PM 44.1 °F 36.2 °F 36.0 °F 73% 30.05 in 10.0 mi NNE 18.4 mph - N/A   Overcast
5:53 PM 44.1 °F 35.9 °F 36.0 °F 73% 30.06 in 10.0 mi NNE 19.6 mph 25.3 mph N/A   Overcast
6:53 PM 43.0 °F 36.4 °F 36.0 °F 76% 30.11 in 10.0 mi North 12.7 mph - 0.00 in   Mostly Cloudy
7:03 PM 43.0 °F 36.8 °F 36.0 °F 76% 30.10 in 10.0 mi NNE 11.5 mph - N/A   Overcast
7:53 PM 42.1 °F 35.2 °F 36.0 °F 79% 30.13 in 10.0 mi North 12.7 mph 20.7 mph N/A   Overcast
8:53 PM 41.0 °F 34.3 °F 35.1 °F 79% 30.16 in 10.0 mi North 11.5 mph - N/A   Overcast
9:53 PM 41.0 °F 34.3 °F 35.1 °F 79% 30.16 in 10.0 mi NNE 11.5 mph - 0.00 in   Overcast
10:53 PM 39.9 °F 32.5 °F 34.0 °F 79% 30.17 in 10.0 mi NNE 12.7 mph - 0.00 in   Overcast
11:53 PM 39.0 °F 31.4 °F 34.0 °F 82% 30.16 in 10.0 mi North 12.7 mph - 0.00 in Rain Light Rain